Location: Syke, Rochdale
(53.6121°N, 2.1588°W)
Time: 02:58:33
(UTC+02:00)

STRAND 1 - Visible Passes

Search period start: 24 April 2018 00:00
Search period end: 04 May 2018 00:00
Orbit: 767 x 782 km, 98.5° (Epoch: 23 April)

Date Brightness Start Highest point End Pass type
(mag) Time Alt. Az. Time Alt. Az. Time Alt. Az.
24 Apr ? 22:38:52 10° N 22:43:50 53° WNW 22:48:47 10° SW visible
25 Apr ? 00:19:50 10° NNW 00:21:59 13° NW 00:24:08 10° WNW visible
25 Apr ? 22:04:49 10° NNE 22:09:58 88° ESE 22:15:05 10° SSW visible
25 Apr ? 23:44:54 10° N 23:48:34 20° NW 23:52:13 10° W visible
26 Apr ? 23:10:28 10° N 23:14:59 32° WNW 23:19:30 10° WSW visible
27 Apr ? 22:36:17 10° N 22:41:17 55° WNW 22:46:15 10° SW visible
28 Apr ? 00:17:09 10° NNW 00:19:28 13° NW 00:21:46 10° WNW visible
28 Apr ? 23:42:17 10° N 23:46:01 21° NW 23:49:45 10° W visible
29 Apr ? 23:07:52 10° N 23:12:26 34° WNW 23:16:59 10° SW visible
30 Apr ? 22:33:41 10° N 22:38:42 58° WNW 22:43:42 10° SW visible
01 May ? 00:14:27 10° NNW 00:16:55 14° NW 00:19:23 10° WNW visible
01 May ? 23:39:39 10° N 23:43:28 22° NW 23:47:18 10° WSW visible
02 May ? 23:05:16 10° N 23:09:53 35° WNW 23:14:29 10° SW visible
03 May ? 22:31:05 10° N 22:36:08 61° WNW 22:41:10 10° SSW visible
